Location: ?????????
(53.2086°N, 54.0693°E)
Time: 00:20:39
(UTC+00:00)

Meteor 1-26 Rocket - Pass Details

Date: 08 December 2019
Orbit: 815 x 921 km, 81.3° (Epoch: 18 January)

Event Time Altitude Azimuth Distance (km) Brightness Sun altitude
Rises 13:11:21 0° 196° (SSW) 3,504 8.1 -9.0°
Reaches altitude 10° 13:13:49 10° 198° (SSW) 2,554 7.4 -9.3°
Maximum altitude 13:19:39 77° 284° (WNW) 901 4.5 -10.1°
Drops below altitude 10° 13:25:20 10° 11° (NNE) 2,499 6.3 -10.9°
Sets 13:27:45 0° 13° (NNE) 3,424 7.0 -11.2°
